Time,TemperatureF,DewpointF,PressureIn,WindDirection,WindDirectionDegrees,WindSpeedMPH,WindSpeedGustMPH,Humidity,HourlyPrecipIn,Conditions,Clouds,dailyrainin,SoftwareType,DateUTC
2013-08-28 00:02:00,68.7,66.9,30.00,SW,232,0.0,0.0,94,0.00,,,0.00,Wunderground v.1.15,2013-08-28 04:02:00,
2013-08-28 00:12:00,68.1,66.9,30.00,SW,232,0.0,0.0,96,0.00,,,0.00,Wunderground v.1.15,2013-08-28 04:12:00,
2013-08-28 00:22:00,68.0,66.8,30.00,SW,232,0.0,0.0,96,0.00,,,0.00,Wunderground v.1.15,2013-08-28 04:22:00,
2013-08-28 00:32:00,68.6,67.4,30.00,SW,232,0.0,0.0,96,0.00,,,0.00,Wunderground v.1.15,2013-08-28 04:32:00,
2013-08-28 00:42:00,69.1,67.3,29.99,SW,232,0.0,0.0,94,0.00,,,0.00,Wunderground v.1.15,2013-08-28 04:42:00,
2013-08-28 00:52:00,68.9,66.8,29.99,SW,232,0.0,0.0,93,0.00,,,0.00,Wunderground v.1.15,2013-08-28 04:52:00,
2013-08-28 01:02:00,68.0,66.5,29.99,SW,232,0.0,0.0,95,0.00,,,0.00,Wunderground v.1.15,2013-08-28 05:02:00,
2013-08-28 01:12:00,67.6,66.4,29.99,SW,232,0.0,0.0,96,0.00,,,0.00,Wunderground v.1.15,2013-08-28 05:12:00,
2013-08-28 01:22:00,67.5,66.3,29.99,SW,232,0.0,0.0,96,0.00,,,0.00,Wunderground v.1.15,2013-08-28 05:22:00,
2013-08-28 01:32:00,67.6,66.4,29.98,SW,232,0.0,0.0,96,0.00,,,0.00,Wunderground v.1.15,2013-08-28 05:32:00,
2013-08-28 01:42:00,67.6,66.4,29.98,SW,232,0.0,0.0,96,0.00,,,0.00,Wunderground v.1.15,2013-08-28 05:42:00,
2013-08-28 01:52:00,67.6,66.4,29.98,SW,232,0.0,0.0,96,0.00,,,0.00,Wunderground v.1.15,2013-08-28 05:52:00,
2013-08-28 02:02:00,67.6,66.1,29.97,SW,232,0.0,0.0,95,0.00,,,0.00,Wunderground v.1.15,2013-08-28 06:02:00,
2013-08-28 02:12:00,67.6,66.4,29.96,SW,232,0.0,0.0,96,0.00,,,0.00,Wunderground v.1.15,2013-08-28 06:12:00,
2013-08-28 02:22:00,68.8,67.3,29.96,SW,232,0.0,0.0,95,0.00,,,0.00,Wunderground v.1.15,2013-08-28 06:22:00,
2013-08-28 02:32:00,68.8,67.0,29.96,SW,232,0.0,0.0,94,0.00,,,0.00,Wunderground v.1.15,2013-08-28 06:32:00,
2013-08-28 02:42:00,68.8,67.0,29.96,SW,232,0.0,0.0,94,0.00,,,0.00,Wunderground v.1.15,2013-08-28 06:42:00,
2013-08-28 02:52:00,68.4,66.6,29.96,SW,232,0.0,0.0,94,0.00,,,0.00,Wunderground v.1.15,2013-08-28 06:52:00,
2013-08-28 03:02:00,68.5,66.7,29.96,SW,232,0.0,0.0,94,0.00,,,0.00,Wunderground v.1.15,2013-08-28 07:02:00,
2013-08-28 03:12:00,66.8,65.3,29.96,SW,232,0.0,0.0,95,0.00,,,0.00,Wunderground v.1.15,2013-08-28 07:12:00,
2013-08-28 03:22:00,66.6,65.4,29.95,SW,232,0.0,0.0,96,0.00,,,0.00,Wunderground v.1.15,2013-08-28 07:22:00,
2013-08-28 03:32:00,66.4,65.2,29.95,SW,232,0.0,0.0,96,0.00,,,0.00,Wunderground v.1.15,2013-08-28 07:32:00,
2013-08-28 03:42:00,66.4,65.2,29.94,SW,232,0.0,0.0,96,0.00,,,0.00,Wunderground v.1.15,2013-08-28 07:42:00,
2013-08-28 03:52:00,66.6,65.4,29.94,SW,232,0.0,0.0,96,0.00,,,0.00,Wunderground v.1.15,2013-08-28 07:52:00,
2013-08-28 04:02:00,66.7,65.5,29.94,SW,232,0.0,0.0,96,0.00,,,0.00,Wunderground v.1.15,2013-08-28 08:02:00,
2013-08-28 04:12:00,66.8,65.6,29.94,SW,232,0.0,0.0,96,0.00,,,0.00,Wunderground v.1.15,2013-08-28 08:12:00,
2013-08-28 04:22:00,67.0,65.8,29.93,WSW,247,0.0,0.0,96,0.00,,,0.00,Wunderground v.1.15,2013-08-28 08:22:00,
2013-08-28 04:32:00,66.4,65.2,29.93,WSW,247,0.0,0.0,96,0.00,,,0.00,Wunderground v.1.15,2013-08-28 08:32:00,
2013-08-28 04:42:00,66.2,65.0,29.94,WSW,247,0.0,0.0,96,0.00,,,0.00,Wunderground v.1.15,2013-08-28 08:42:00,
2013-08-28 04:52:00,66.3,65.4,29.94,WSW,247,0.0,0.0,97,0.00,,,0.00,Wunderground v.1.15,2013-08-28 08:52:00,
2013-08-28 05:02:00,66.5,65.6,29.94,WSW,248,0.0,0.0,97,0.00,,,0.00,Wunderground v.1.15,2013-08-28 09:02:00,
2013-08-28 05:12:00,66.3,65.4,29.94,WSW,248,0.0,0.0,97,0.00,,,0.00,Wunderground v.1.15,2013-08-28 09:12:00,
2013-08-28 05:22:00,66.2,65.0,29.94,WSW,248,0.0,0.0,96,0.00,,,0.00,Wunderground v.1.15,2013-08-28 09:22:00,
2013-08-28 05:32:00,66.2,65.3,29.95,WSW,248,0.0,0.0,97,0.00,,,0.00,Wunderground v.1.15,2013-08-28 09:32:00,
2013-08-28 05:42:00,66.1,65.2,29.95,WSW,248,0.0,0.0,97,0.00,,,0.00,Wunderground v.1.15,2013-08-28 09:42:00,
2013-08-28 05:52:00,66.3,65.4,29.95,WSW,248,0.0,0.0,97,0.00,,,0.00,Wunderground v.1.15,2013-08-28 09:52:00,
2013-08-28 06:02:00,65.9,65.0,29.95,WSW,248,0.0,0.0,97,0.00,,,0.00,Wunderground v.1.15,2013-08-28 10:02:00,
2013-08-28 06:12:00,65.7,64.8,29.95,WSW,248,0.0,0.0,97,0.00,,,0.00,Wunderground v.1.15,2013-08-28 10:12:00,
2013-08-28 06:22:00,65.5,64.6,29.95,WSW,248,0.0,0.0,97,0.00,,,0.00,Wunderground v.1.15,2013-08-28 10:22:00,
2013-08-28 06:32:00,65.2,64.3,29.95,WSW,248,0.0,0.0,97,0.00,,,0.00,Wunderground v.1.15,2013-08-28 10:32:00,
2013-08-28 06:42:00,65.7,64.8,29.95,WSW,248,0.0,0.0,97,0.00,,,0.00,Wunderground v.1.15,2013-08-28 10:42:00,
2013-08-28 06:52:00,65.8,64.9,29.96,WSW,250,0.0,0.0,97,0.00,,,0.00,Wunderground v.1.15,2013-08-28 10:52:00,
2013-08-28 07:02:00,65.6,64.7,29.96,WSW,250,0.0,0.0,97,0.00,,,0.00,Wunderground v.1.15,2013-08-28 11:02:00,
2013-08-28 07:12:00,65.7,64.8,29.96,WSW,250,0.0,0.0,97,0.00,,,0.00,Wunderground v.1.15,2013-08-28 11:12:00,
2013-08-28 07:22:00,65.6,64.7,29.97,WSW,250,0.0,0.0,97,0.00,,,0.00,Wunderground v.1.15,2013-08-28 11:22:00,
2013-08-28 07:32:00,66.0,65.4,29.97,WSW,250,0.0,0.0,98,0.00,,,0.00,Wunderground v.1.15,2013-08-28 11:32:00,
2013-08-28 07:42:00,66.7,66.1,29.97,WSW,250,0.0,0.0,98,0.00,,,0.00,Wunderground v.1.15,2013-08-28 11:42:00,
2013-08-28 07:52:00,67.8,66.9,29.97,WSW,250,0.0,0.0,97,0.00,,,0.00,Wunderground v.1.15,2013-08-28 11:52:00,
2013-08-28 08:02:00,69.2,68.3,29.97,WSW,250,0.0,0.0,97,0.00,,,0.00,Wunderground v.1.15,2013-08-28 12:02:00,
2013-08-28 08:12:00,71.3,69.8,29.97,WSW,250,0.0,0.0,95,0.00,,,0.00,Wunderground v.1.15,2013-08-28 12:12:00,
2013-08-28 08:22:00,72.6,70.5,29.97,WSW,250,0.0,0.0,93,0.00,,,0.00,Wunderground v.1.15,2013-08-28 12:22:00,
2013-08-28 08:32:00,73.6,70.8,29.97,WSW,250,0.0,0.0,91,0.00,,,0.00,Wunderground v.1.15,2013-08-28 12:32:00,
2013-08-28 08:42:00,74.7,71.2,29.97,WSW,250,0.0,0.0,89,0.00,,,0.00,Wunderground v.1.15,2013-08-28 12:42:00,
2013-08-28 08:52:00,76.3,72.1,29.97,WNW,300,0.0,0.0,87,0.00,,,0.00,Wunderground v.1.15,2013-08-28 12:52:00,
2013-08-28 09:02:00,76.9,72.0,29.97,North,9,0.0,0.0,85,0.00,,,0.00,Wunderground v.1.15,2013-08-28 13:02:00,
2013-08-28 09:12:00,77.9,72.0,29.97,NNW,330,0.0,0.0,82,0.00,,,0.00,Wunderground v.1.15,2013-08-28 13:12:00,
2013-08-28 09:22:00,78.7,71.3,29.97,West,271,0.0,0.0,78,0.00,,,0.00,Wunderground v.1.15,2013-08-28 13:22:00,
2013-08-28 09:32:00,79.4,73.1,29.97,NW,312,0.0,0.0,81,0.00,,,0.00,Wunderground v.1.15,2013-08-28 13:32:00,
2013-08-28 09:42:00,80.2,71.6,29.97,WNW,298,0.0,0.0,75,0.00,,,0.00,Wunderground v.1.15,2013-08-28 13:42:00,
2013-08-28 09:52:00,80.9,72.6,29.97,NW,311,0.0,0.0,76,0.00,,,0.00,Wunderground v.1.15,2013-08-28 13:52:00,
2013-08-28 10:02:00,81.4,72.3,29.97,NW,325,0.0,0.0,74,0.00,,,0.00,Wunderground v.1.15,2013-08-28 14:02:00,
2013-08-28 10:12:00,81.0,71.9,29.98,NNW,338,0.0,0.0,74,0.00,,,0.00,Wunderground v.1.15,2013-08-28 14:12:00,
2013-08-28 10:22:00,81.3,73.0,29.97,NW,318,0.0,0.0,76,0.00,,,0.00,Wunderground v.1.15,2013-08-28 14:22:00,
2013-08-28 10:32:00,81.7,72.2,29.97,NNE,21,0.0,0.0,73,0.00,,,0.00,Wunderground v.1.15,2013-08-28 14:32:00,
2013-08-28 10:42:00,81.6,72.1,29.97,North,355,0.0,0.0,73,0.00,,,0.00,Wunderground v.1.15,2013-08-28 14:42:00,
2013-08-28 10:52:00,81.9,72.4,29.98,WNW,298,0.0,0.0,73,0.00,,,0.00,Wunderground v.1.15,2013-08-28 14:52:00,
2013-08-28 11:02:00,82.2,71.9,29.97,West,281,0.0,0.0,71,0.00,,,0.00,Wunderground v.1.15,2013-08-28 15:02:00,
2013-08-28 11:12:00,82.6,72.7,29.98,NNE,24,0.0,0.0,72,0.00,,,0.00,Wunderground v.1.15,2013-08-28 15:12:00,
2013-08-28 11:22:00,82.8,71.6,29.98,ENE,78,0.0,0.0,69,0.00,,,0.00,Wunderground v.1.15,2013-08-28 15:22:00,
2013-08-28 11:32:00,83.1,73.1,29.98,NE,40,0.0,0.0,72,0.00,,,0.00,Wunderground v.1.15,2013-08-28 15:32:00,
2013-08-28 11:42:00,83.3,71.6,29.98,ENE,67,0.0,0.0,68,0.00,,,0.00,Wunderground v.1.15,2013-08-28 15:42:00,
2013-08-28 11:52:00,84.1,72.8,29.98,North,5,0.0,0.0,69,0.00,,,0.00,Wunderground v.1.15,2013-08-28 15:52:00,
2013-08-28 12:02:00,84.1,72.8,29.98,ENE,75,0.0,0.0,69,0.00,,,0.00,Wunderground v.1.15,2013-08-28 16:02:00,
2013-08-28 12:12:00,84.3,71.7,29.98,East,90,0.0,0.0,66,0.00,,,0.00,Wunderground v.1.15,2013-08-28 16:12:00,
2013-08-28 12:22:00,84.7,71.6,29.97,West,261,0.0,0.0,65,0.00,,,0.00,Wunderground v.1.15,2013-08-28 16:22:00,
2013-08-28 12:32:00,85.5,73.3,29.97,WNW,290,0.0,2.0,67,0.00,,,0.00,Wunderground v.1.15,2013-08-28 16:32:00,
2013-08-28 12:42:00,85.5,71.9,29.98,North,9,2.0,3.0,64,0.00,,,0.00,Wunderground v.1.15,2013-08-28 16:42:00,
2013-08-28 12:52:00,85.4,74.1,29.97,NW,322,2.0,2.0,69,0.00,,,0.00,Wunderground v.1.15,2013-08-28 16:52:00,
2013-08-28 13:02:00,86.2,75.3,29.97,West,271,3.0,4.0,70,0.00,,,0.00,Wunderground v.1.15,2013-08-28 17:02:00,
2013-08-28 13:12:00,86.8,75.0,29.97,SSE,156,2.0,2.0,68,0.00,,,0.00,Wunderground v.1.15,2013-08-28 17:12:00,
2013-08-28 13:22:00,86.8,73.2,29.97,SW,226,3.0,3.0,64,0.00,,,0.00,Wunderground v.1.15,2013-08-28 17:22:00,
2013-08-28 13:32:00,85.9,72.8,29.97,WSW,238,3.0,3.0,65,0.00,,,0.00,Wunderground v.1.15,2013-08-28 17:32:00,
2013-08-28 13:42:00,86.5,74.2,29.97,South,186,2.0,3.0,67,0.00,,,0.00,Wunderground v.1.15,2013-08-28 17:42:00,
2013-08-28 13:52:00,86.7,74.4,29.95,SW,231,2.0,4.0,67,0.00,,,0.00,Wunderground v.1.15,2013-08-28 17:52:00,
2013-08-28 14:02:00,86.4,72.8,29.96,SW,214,1.0,2.0,64,0.00,,,0.00,Wunderground v.1.15,2013-08-28 18:02:00,
2013-08-28 14:12:00,86.4,73.2,29.95,SE,140,2.0,4.0,65,0.00,,,0.00,Wunderground v.1.15,2013-08-28 18:12:00,
2013-08-28 14:22:00,87.4,74.6,29.95,SW,224,4.0,6.0,66,0.00,,,0.00,Wunderground v.1.15,2013-08-28 18:22:00,
2013-08-28 14:32:00,86.6,72.5,29.95,NNW,344,4.0,4.0,63,0.00,,,0.00,Wunderground v.1.15,2013-08-28 18:32:00,
2013-08-28 14:52:00,88.1,73.9,29.94,West,265,3.0,6.0,63,0.00,,,0.00,Wunderground v.1.15,2013-08-28 18:52:00,
2013-08-28 15:02:00,87.9,74.2,29.94,SSW,207,5.0,5.0,64,0.00,,,0.00,Wunderground v.1.15,2013-08-28 19:02:00,
2013-08-28 15:12:00,88.1,73.4,29.93,WSW,238,4.0,4.0,62,0.00,,,0.00,Wunderground v.1.15,2013-08-28 19:12:00,
2013-08-28 15:22:00,87.1,73.4,29.93,South,171,5.0,5.0,64,0.00,,,0.00,Wunderground v.1.15,2013-08-28 19:22:00,
2013-08-28 15:42:00,86.4,73.2,29.93,WSW,237,4.0,4.0,65,0.00,,,0.00,Wunderground v.1.15,2013-08-28 19:42:00,
2013-08-28 15:52:00,86.7,73.5,29.92,WSW,250,4.0,5.0,65,0.00,,,0.00,Wunderground v.1.15,2013-08-28 19:52:00,
2013-08-28 16:02:00,88.0,74.3,29.92,WSW,241,4.0,4.0,64,0.00,,,0.00,Wunderground v.1.15,2013-08-28 20:02:00,
2013-08-28 16:12:00,87.5,75.2,29.92,South,187,5.0,5.0,67,0.00,,,0.00,Wunderground v.1.15,2013-08-28 20:12:00,
2013-08-28 16:22:00,87.5,72.9,29.91,SW,228,4.0,4.0,62,0.00,,,0.00,Wunderground v.1.15,2013-08-28 20:22:00,
2013-08-28 16:32:00,86.7,72.6,29.91,SW,236,5.0,6.0,63,0.00,,,0.00,Wunderground v.1.15,2013-08-28 20:32:00,
2013-08-28 16:42:00,86.8,74.1,29.91,SW,227,5.0,5.0,66,0.00,,,0.00,Wunderground v.1.15,2013-08-28 20:42:00,
2013-08-28 16:52:00,86.8,73.2,29.91,WSW,243,6.0,8.0,64,0.00,,,0.00,Wunderground v.1.15,2013-08-28 20:52:00,
2013-08-28 17:02:00,87.3,73.6,29.91,SW,222,5.0,8.0,64,0.00,,,0.00,Wunderground v.1.15,2013-08-28 21:02:00,
2013-08-28 17:12:00,86.9,72.8,29.91,SW,219,6.0,6.0,63,0.00,,,0.00,Wunderground v.1.15,2013-08-28 21:12:00,
2013-08-28 17:22:00,86.7,72.6,29.91,WSW,238,5.0,5.0,63,0.00,,,0.00,Wunderground v.1.15,2013-08-28 21:22:00,
2013-08-28 17:32:00,86.6,72.5,29.90,SW,217,4.0,6.0,63,0.00,,,0.00,Wunderground v.1.15,2013-08-28 21:32:00,
2013-08-28 17:42:00,86.4,72.3,29.90,SW,234,5.0,5.0,63,0.00,,,0.00,Wunderground v.1.15,2013-08-28 21:42:00,
2013-08-28 17:52:00,86.0,72.9,29.90,WSW,250,5.0,8.0,65,0.00,,,0.00,Wunderground v.1.15,2013-08-28 21:52:00,
2013-08-28 18:02:00,85.8,71.3,29.90,SSW,211,6.0,6.0,62,0.00,,,0.00,Wunderground v.1.15,2013-08-28 22:02:00,
2013-08-28 18:12:00,85.6,71.1,29.90,WSW,251,5.0,5.0,62,0.00,,,0.00,Wunderground v.1.15,2013-08-28 22:12:00,
2013-08-28 18:22:00,85.3,71.7,29.90,WSW,239,4.0,4.0,64,0.00,,,0.00,Wunderground v.1.15,2013-08-28 22:22:00,
2013-08-28 18:32:00,85.0,71.9,29.90,SSW,198,3.0,3.0,65,0.00,,,0.00,Wunderground v.1.15,2013-08-28 22:32:00,
2013-08-28 18:42:00,84.8,71.7,29.90,SW,232,3.0,3.0,65,0.00,,,0.00,Wunderground v.1.15,2013-08-28 22:42:00,
2013-08-28 18:52:00,84.5,72.3,29.90,WSW,258,2.0,2.0,67,0.00,,,0.00,Wunderground v.1.15,2013-08-28 22:52:00,
2013-08-28 19:02:00,84.0,73.2,29.90,WSW,239,2.0,2.0,70,0.00,,,0.00,Wunderground v.1.15,2013-08-28 23:02:00,
2013-08-28 19:12:00,83.6,72.3,29.90,WSW,244,1.0,1.0,69,0.00,,,0.00,Wunderground v.1.15,2013-08-28 23:12:00,
2013-08-28 19:22:00,82.9,72.9,29.90,WSW,246,1.0,1.0,72,0.00,,,0.00,Wunderground v.1.15,2013-08-28 23:22:00,
2013-08-28 19:32:00,82.1,72.6,29.91,WSW,250,2.0,2.0,73,0.00,,,0.00,Wunderground v.1.15,2013-08-28 23:32:00,
2013-08-28 19:42:00,81.3,73.0,29.90,WSW,250,0.0,0.0,76,0.00,,,0.00,Wunderground v.1.15,2013-08-28 23:42:00,
2013-08-28 19:52:00,80.8,72.5,29.91,WSW,250,0.0,0.0,76,0.00,,,0.00,Wunderground v.1.15,2013-08-28 23:52:00,
2013-08-28 20:02:00,80.1,72.6,29.91,WSW,250,0.0,0.0,78,0.00,,,0.00,Wunderground v.1.15,2013-08-29 00:02:00,
2013-08-28 20:12:00,79.2,72.5,29.91,WSW,250,0.0,0.0,80,0.00,,,0.00,Wunderground v.1.15,2013-08-29 00:12:00,
2013-08-28 20:22:00,78.5,72.5,29.91,WSW,250,0.0,0.0,82,0.00,,,0.00,Wunderground v.1.15,2013-08-29 00:22:00,
2013-08-28 20:32:00,77.9,72.3,29.91,WSW,250,0.0,0.0,83,0.00,,,0.00,Wunderground v.1.15,2013-08-29 00:32:00,
2013-08-28 20:42:00,76.9,72.4,29.92,WSW,250,0.0,0.0,86,0.00,,,0.00,Wunderground v.1.15,2013-08-29 00:42:00,
2013-08-28 20:52:00,76.4,72.2,29.91,WSW,250,0.0,0.0,87,0.00,,,0.00,Wunderground v.1.15,2013-08-29 00:52:00,
2013-08-28 21:02:00,76.1,72.3,29.92,WSW,250,0.0,0.0,88,0.00,,,0.00,Wunderground v.1.15,2013-08-29 01:02:00,
2013-08-28 21:12:00,76.5,72.0,29.92,WSW,250,0.0,0.0,86,0.00,,,0.00,Wunderground v.1.15,2013-08-29 01:12:00,
2013-08-28 21:22:00,76.2,72.4,29.92,WSW,250,0.0,0.0,88,0.00,,,0.00,Wunderground v.1.15,2013-08-29 01:22:00,
2013-08-28 21:32:00,75.7,72.2,29.92,WSW,250,0.0,0.0,89,0.00,,,0.00,Wunderground v.1.15,2013-08-29 01:32:00,
2013-08-28 21:42:00,74.9,72.1,29.92,WSW,250,0.0,0.0,91,0.00,,,0.00,Wunderground v.1.15,2013-08-29 01:42:00,
2013-08-28 21:52:00,74.6,72.1,29.92,WSW,250,0.0,0.0,92,0.00,,,0.00,Wunderground v.1.15,2013-08-29 01:52:00,
2013-08-28 22:02:00,74.5,72.0,29.92,WSW,250,0.0,0.0,92,0.00,,,0.00,Wunderground v.1.15,2013-08-29 02:02:00,
2013-08-28 22:12:00,74.4,71.9,29.92,WSW,250,0.0,0.0,92,0.00,,,0.00,Wunderground v.1.15,2013-08-29 02:12:00,
2013-08-28 22:22:00,74.1,71.9,29.92,WSW,250,0.0,0.0,93,0.00,,,0.00,Wunderground v.1.15,2013-08-29 02:22:00,
2013-08-28 22:32:00,74.0,71.8,29.92,WSW,250,0.0,0.0,93,0.00,,,0.00,Wunderground v.1.15,2013-08-29 02:32:00,
2013-08-28 22:42:00,74.1,71.3,29.92,WSW,250,0.0,0.0,91,0.00,,,0.00,Wunderground v.1.15,2013-08-29 02:42:00,
2013-08-28 22:52:00,73.9,71.4,29.92,WSW,250,0.0,0.0,92,0.00,,,0.00,Wunderground v.1.15,2013-08-29 02:52:00,
2013-08-28 23:02:00,73.3,71.5,29.92,WSW,250,0.0,0.0,94,0.00,,,0.00,Wunderground v.1.15,2013-08-29 03:02:00,
2013-08-28 23:12:00,72.6,71.1,29.92,WSW,250,0.0,0.0,95,0.00,,,0.00,Wunderground v.1.15,2013-08-29 03:12:00,
2013-08-28 23:22:00,73.1,71.3,29.92,WSW,250,0.0,0.0,94,0.00,,,0.00,Wunderground v.1.15,2013-08-29 03:22:00,
2013-08-28 23:32:00,73.1,71.3,29.92,WSW,250,0.0,0.0,94,0.00,,,0.00,Wunderground v.1.15,2013-08-29 03:32:00,
2013-08-28 23:42:00,73.0,71.2,29.91,WSW,250,0.0,0.0,94,0.00,,,0.00,Wunderground v.1.15,2013-08-29 03:42:00,
2013-08-28 23:52:00,72.9,71.1,29.91,WSW,250,0.0,0.0,94,0.00,,,0.00,Wunderground v.1.15,2013-08-29 03:52:00,